Simultaneous Nadir Overpasses (SNOs) Predictions

Prediction of SNOs between METOP-A and TERRA Satellite Orbit:

Table of predicted SNOs for the next 14.0 days since TLE Epoch: 11/25/2017
Index Date (METOP-A) Time (METOP-A) Lat,Lon (METOP-A) SZA (METOP-A ) Date (TERRA) Time (TERRA) Lat,Lon (TERRA) SZA (TERRA ) Distance(km) Time Diff (sec)
1 11/27/2017 03:22:22 -81.38, -1.90 74.37 11/27/2017 03:23:07 -81.38, -1.88 74.34 0.38 45
2 11/27/2017 04:13:02 81.38, 165.67 105.67 11/27/2017 04:12:33 81.38, 165.86 105.68 3.19 29
3 11/29/2017 22:56:40 -81.38, 64.68 73.89 11/29/2017 22:57:21 -81.38, 64.54 73.89 2.31 41
4 11/29/2017 23:47:20 81.38,-127.80 106.14 11/29/2017 23:46:47 81.38,-127.74 106.13 0.99 33
5 12/02/2017 18:30:58 -81.38, 130.84 73.53 12/02/2017 18:31:34 -81.37, 130.84 73.51 0.71 36
6 12/02/2017 19:21:37 81.38, -61.28 106.55 12/02/2017 19:21:00 81.37, -61.46 106.50 3.06 37
7 12/05/2017 14:05:16 -81.38,-162.63 73.17 12/05/2017 14:05:47 -81.37,-162.61 73.16 0.36 31
8 12/05/2017 14:55:55 81.38, 5.21 106.89 12/05/2017 14:55:13 81.38, 5.08 106.86 2.21 42
9 12/08/2017 09:39:34 -81.38, -96.12 72.88 12/08/2017 09:40:00 -81.37, -96.18 72.88 1.17 26




NCC Satellite Simultaneous Nadir Overpasses (SNOs) Prediction Service
